Location: *
(63.9400°N, 135.1760°W)
Time: 07:24:07
(UTC+00:00)

Daily predictions for brighter satellites

Satellite Brightness Start Highest point End
(mag) Time Altitude Azimuth Time Altitude Azimuth Time Altitude Azimuth
Cosmos 1606 2.9 12:03:23 41° WSW 12:04:26 56° WNW 12:08:20 10° NNE
Cosmos 1943 3.4 12:00:06 10° NW 12:05:33 47° WSW 12:10:59 10° SSE
Mayak 1.2 12:05:43 10° N 12:07:45 13° NW 12:09:48 10° WNW
Cosmos 371 Rocket 3.2 12:03:54 10° NW 12:08:50 85° SW 12:13:44 10° SSE
ADEOS Rocket 3.3 12:03:57 10° NNE 12:09:48 56° WNW 12:13:37 25° SW
UNKNOWN OBJECT B 3.3 12:06:59 10° NNE 12:10:55 57° ESE 12:13:37 18° S
MOS 1 Rocket 3.5 12:06:45 10° NNE 12:11:52 81° WNW 12:15:14 23° SSW
NOSS 2-1 (E) 4.1 12:09:00 17° W 12:12:56 74° SSW 12:19:40 10° ESE
CRYOSAT 2 4.3 12:08:04 10° N 12:13:00 88° W 12:16:53 16° S
Resurs 1-4 Rocket 2.1 12:08:39 10° NNE 12:14:00 84° WNW 12:17:30 22° SSW
Cosmos 2227 Rocket 2.2 12:12:24 27° SW 12:15:38 88° NW 12:21:22 10° NE
IRS-P3 4.3 12:11:03 10° NNE 12:16:18 58° WNW 12:19:13 26° SW
Cosmos 2251 Rocket 3.9 12:13:55 26° WSW 12:16:44 55° NW 12:21:59 10° NE
AQUA 4.0 12:12:14 10° NNE 12:16:57 60° WNW 12:19:22 28° SW
Cosmos 1814 Rocket 4.0 12:12:00 10° NW 12:17:11 81° NE 12:22:22 10° SE
Meteor 2-6 Rocket 4.2 12:13:48 24° SSW 12:17:28 75° WNW 12:23:07 10° NNE
Cosmos 1437 Rocket 2.6 12:13:56 10° NNW 12:17:51 86° WSW 12:21:48 10° SSE
NOSS 3-3 (A) 4.3 12:11:05 10° WNW 12:17:59 75° SSW 12:25:37 10° ESE
NOSS 3-3 (C) 4.3 12:11:10 10° WNW 12:18:05 75° SSW 12:25:44 10° ESE
Cosmos 405 Rocket 3.5 12:15:01 15° S 12:18:09 53° ESE 12:22:08 10° NNE
Meteor 1-12 Rocket 4.4 12:13:36 10° NNW 12:19:39 85° ENE 12:25:42 10° SSE
Cosmos 2142 Rocket 4.5 12:17:28 17° SSW 12:22:24 82° WNW 12:28:50 10° NNE
Cosmos 2082 Rocket 3.1 12:18:06 10° NW 12:23:39 49° NNE 12:29:14 10° E
Cosmos 1437 3.0 12:22:57 39° WSW 12:23:45 50° WNW 12:26:58 10° NNE
Cosmos 407 Rocket 4.0 12:22:10 16° SSW 12:26:22 60° ESE 12:31:38 10° NE
Cosmos 2263 Rocket 4.2 12:22:30 10° SSE 12:27:03 25° ESE 12:31:37 10° NE
H-2A R/B 3.9 12:23:53 10° N 12:27:29 26° NW 12:29:23 20° W
Cosmos 1378 Rocket 4.2 12:23:30 10° S 12:27:49 56° E 12:32:07 10° NNE
ASTEX 1 3.8 12:24:16 10° N 12:29:11 65° E 12:34:07 10° S
Meteor 1-10 Rocket 4.3 12:26:40 22° SW 12:30:21 63° WNW 12:35:57 10° NNE
Iridium 30 3.9 12:28:28 10° N 12:29:58 40° NNW 12:29:58 40° NNW
Okean O Rocket 3.6 12:27:37 10° NNE 12:31:24 27° E 12:35:08 10° SSE
Meteor 1-4 Rocket 3.0 12:29:58 10° NNW 12:33:31 61° ENE 12:36:58 10° SSE
CBERS-1 4.4 12:28:39 10° NNE 12:33:35 49° WNW 12:36:36 22° WSW
Lacrosse 4 Rocket 1.8 12:31:03 10° WNW 12:35:30 67° NNE 12:39:50 10° ESE
Cosmos 1634 Rocket 4.1 12:31:16 18° SSW 12:36:07 67° WNW 12:42:26 10° NNE
SL-16 R/B 3.6 12:34:25 21° WSW 12:36:30 25° W 12:41:28 10° NNW
USA 161 1.5 12:36:38 43° WSW 12:36:53 45° W 12:39:32 10° NNW
CZ-2C R/B 4.2 12:32:17 10° SE 12:37:00 68° ENE 12:41:47 10° NNW
CZ-2D R/B 3.5 12:34:58 10° NNE 12:39:06 85° ESE 12:42:42 14° SSW
Cosmos 2082 3.7 12:35:29 22° SW 12:39:23 80° NW 12:45:10 10° NE
ADEOS 3.5 12:34:36 10° NNE 12:39:53 81° WNW 12:44:15 15° SSW
ATLAS 5 CENTAUR R/B 2.3 12:36:51 10° WNW 12:42:14 60° SSW 12:48:15 10° SE
Okean 1 Rocket 3.6 12:38:36 10° NNW 12:42:46 38° W 12:45:58 16° SSW
Cosmos 1812 3.2 12:39:22 10° S 12:43:12 61° E 12:47:03 10° NNE
Helios 1A Rocket 3.9 12:41:23 10° N 12:45:09 33° NW 12:47:14 21° WSW
CZ-2D R/B 2.2 12:41:34 10° NNE 12:46:43 59° WNW 12:50:35 18° SW
Cosmos 1500 3.3 12:43:31 10° NNW 12:47:11 49° W 12:50:50 10° S
Cosmos 1271 Rocket 4.3 12:47:08 10° NNW 12:50:53 40° ENE 12:54:41 10° SE
SL-24 R/B 4.1 12:46:48 10° NNE 12:51:06 68° WNW 12:54:29 16° SW
SeaSat 1 3.9 12:46:59 10° ENE 12:51:26 35° N 12:55:53 10° WNW
Cosmos 44 3.3 12:48:38 20° SW 12:51:31 60° SSE 12:55:51 10° ENE
Genesis I 3.3 12:49:42 17° W 12:52:46 83° N 12:56:48 10° E
Cosmos 2266 Rocket 4.1 12:48:49 10° NNW 12:55:05 58° W 13:01:22 10° S
Cosmos 841 Rocket 3.4 12:50:30 10° NW 12:55:42 85° SW 13:00:55 10° SSE
Cosmos 468 Rocket 4.1 12:50:39 10° NW 12:55:51 54° WSW 13:01:02 10° SSE
Cosmos 304 Rocket 3.8 12:51:07 10° NW 12:55:59 87° SW 13:00:50 10° SE
SL-24 R/B 4.3 12:52:06 10° NNE 12:56:06 46° WNW 12:58:32 19° SW
USA 116 3.6 12:53:03 10° SSE 12:56:08 64° ENE 12:59:16 10° NNW
Cosmos 1536 4.2 12:53:40 10° NW 12:56:41 21° W 12:57:34 19° WSW
Cosmos 2297 Rocket 2.3 12:54:28 18° WSW 12:58:46 70° NW 13:04:28 10° NE
Cosmos 1340 4.3 12:57:10 16° W 12:58:54 22° NW 13:01:57 10° N
Cosmos 44 Rocket 3.4 12:56:07 18° SW 12:59:35 66° SSE 13:04:18 10° ENE
TSX-5 3.9 12:55:37 10° NW 13:00:33 79° SW 13:04:22 10° SE
Cosmos 1441 Rocket 3.1 12:58:56 10° SSW 13:02:43 88° ESE 13:06:36 10° NNE
Cosmos 1140 Rocket 4.0 12:58:24 10° SSW 13:03:33 60° ESE 13:08:44 10° NE
Cosmos 1975 3.0 13:01:21 10° NNW 13:05:21 50° W 13:09:19 10° S
Cosmos 1190 Rocket 4.0 13:00:55 14° SW 13:05:34 86° NW 13:10:56 10° NE
Cosmos 1674 Rocket 3.7 13:01:47 13° SSW 13:05:34 59° WNW 13:10:00 10° NNE
USA 215 3.9 13:01:41 10° SE 13:07:38 36° SSW 13:13:34 10° W
SL-24 DEB 4.3 13:04:33 10° N 13:09:21 70° W 13:14:08 10° SSW
COSMO-SKYMED 1 3.3 13:05:55 10° SE 13:10:12 59° ENE 13:14:30 10° NNW
Cosmos 2292 Rocket 4.3 13:08:38 10° N 13:12:18 55° ENE 13:17:05 10° SSE
IRS-1D 4.1 13:08:31 10° NNE 13:13:37 45° NW 13:18:08 13° WSW
Meteor 2-9 Rocket 4.1 13:09:34 10° NNW 13:14:57 89° WSW 13:20:26 10° SSE
PSLV R/B 4.2 13:11:32 10° NNE 13:15:28 65° ESE 13:19:19 10° S
PSLV R/B 4.0 13:12:00 10° NNE 13:16:13 61° ESE 13:20:22 10° S
Cosmos 1763 Rocket 3.6 13:11:14 10° NW 13:16:25 59° WSW 13:21:37 10° SSE
ARIANE 5 R/B 3.0 13:11:56 10° NNE 13:16:52 46° NW 13:21:18 12° SW
Meteor 1-27 Rocket 4.0 13:12:39 13° SW 13:17:32 50° WNW 13:22:57 10° NNE
Lacrosse 5 rocket 2.3 13:15:24 15° SW 13:17:52 29° S 13:21:09 10° ESE
Cosmos 540 Rocket 3.5 13:13:03 10° NW 13:18:14 86° NE 13:23:25 10° SE
Okean 3 3.6 13:15:34 10° SSW 13:19:50 60° WNW 13:24:09 10° NNE
Cosmos 1782 4.4 13:18:10 13° W 13:20:27 20° NW 13:23:30 10° N
Cosmos 1544 Rocket 3.7 13:16:17 10° NNW 13:20:30 50° W 13:24:42 10° S
COSMOS 2406 3.3 13:15:26 10° NW 13:21:07 58° SW 13:26:46 10° SSE
MTI 3.7 13:18:09 10° SSE 13:21:26 82° WSW 13:24:45 10° NNW
Cosmos 1461 3.1 13:20:46 12° W 13:24:41 77° N 13:29:09 10° E
Cosmos 1954 Rocket 4.1 13:20:29 10° SSW 13:25:49 83° SE 13:31:12 10° NE
Okean 1 3.4 13:22:22 10° S 13:26:23 82° ESE 13:30:27 10° NNE
GEOS 3 Rocket 4.3 13:22:06 10° SSE 13:26:55 35° SW 13:31:50 10° WNW
GENESIS II 4.3 13:23:52 14° WSW 13:27:18 75° SSE 13:31:17 10° ENE
EO 1 Del DPAF 3.2 13:23:53 10° SSE 13:27:44 80° WSW 13:31:37 10° NNW
Cosmos 1455 Rocket 3.3 13:24:09 10° NNW 13:28:21 48° W 13:32:31 10° S
Cosmos 1666 2.7 13:25:05 10° NNW 13:28:47 53° W 13:32:28 10° S
CZ-4B R/B 3.2 13:24:53 10° NNE 13:29:14 77° ESE 13:33:20 10° SSW
APEX 4.1 13:26:43 10° WNW 13:29:30 28° NNW 13:32:03 10° NE
Cosmos 676 Rocket 4.1 13:24:26 10° SW 13:29:47 87° NW 13:35:11 10° NE
Cosmos 614 Rocket 4.2 13:25:38 10° SSW 13:30:44 75° ESE 13:35:56 10° NE
Cosmos 389 Rocket 2.8 13:30:19 10° NNW 13:33:47 70° ENE 13:37:15 10° SSE
Cosmos 1975 Rocket 3.0 13:29:30 10° SSW 13:33:57 79° WNW 13:38:23 10° NNE
Meteor 1-15 Rocket 4.3 13:30:02 10° NNW 13:35:48 88° ENE 13:41:26 10° SSE
PEGASUS R/B 4.2 13:33:31 10° SE 13:36:03 65° NE 13:39:53 10° NW
Cosmos 1743 3.2 13:33:05 10° NNW 13:36:48 41° W 13:40:30 10° SSW
Landsat 4 4.1 13:34:44 10° S 13:38:24 41° W 13:42:03 10° NNW
ADEOS II 2.1 13:33:14 10° NNE 13:38:33 81° WNW 13:43:49 10° SSW
Cosmos 2279 Rocket 4.4 13:36:05 10° SW 13:42:03 46° WNW 13:48:02 10° NNE
UNKNOWN OBJECT B 3.7 13:41:43 10° N 13:45:17 32° NW 13:48:45 10° WSW
Meteor 1-18 Rocket 4.4 13:39:20 10° SSW 13:45:18 81° WNW 13:51:17 10° NNE
Cosmos 836 Rocket 4.5 13:41:38 10° NW 13:46:52 69° WSW 13:52:03 10° SSE
Cosmos 1867 3.6 13:43:05 10° WNW 13:48:33 72° SSW 13:54:00 10° SE
Cosmos 371 Rocket 4.3 13:44:47 10° NW 13:48:44 25° WSW 13:52:39 10° SSW
Cosmos 2219 4.1 13:43:38 10° W 13:49:08 43° N 13:54:37 10° ENE
Cosmos 1833 Rocket 2.9 13:43:57 10° NW 13:49:38 81° NE 13:55:17 10° SE
Cosmos 2285 Rocket 4.5 13:43:46 10° NW 13:50:15 69° NE 13:56:39 10° SE
SL-27 R/B 2.6 13:46:35 10° NW 13:50:17 84° NE 13:53:56 10° SE
CZ-4C R/B 2.6 13:46:14 10° WSW 13:52:10 82° SSE 13:59:10 10° E
Resurs 1-4 Rocket 3.1 13:48:49 10° NNE 13:53:22 30° NW 13:57:57 10° WSW
Cosmos 1437 Rocket 4.2 13:50:57 10° NW 13:53:38 18° W 13:56:20 10° SW
Cosmos 405 Rocket 3.6 13:50:47 10° WSW 13:54:26 34° NW 13:58:11 10° N
ADEOS Rocket 4.3 13:49:46 10° NNE 13:54:27 25° NNW 13:59:29 10° W
PAYLOAD B 4.4 13:49:19 10° NNE 13:54:54 84° ESE 14:00:27 10° SSW
Cosmos 2227 4.3 13:51:14 10° SW 13:56:54 83° NW 14:02:38 10° NE
Meteor PRIRODA 3.9 13:54:12 10° NNE 13:57:54 73° ESE 14:01:36 10° SSW
SKYMED 2 3.6 13:53:58 10° S 13:58:19 70° WSW 14:02:41 10° NNW
Cosmos 1536 Rocket 3.8 13:54:53 10° S 13:59:14 75° ESE 14:03:39 10° NNE
Cosmos 2227 Rocket 2.8 13:54:46 10° W 14:00:15 47° NNW 14:05:46 10° ENE
MOS 1-B 4.4 13:55:53 10° NNE 14:01:41 68° WNW 14:07:26 10° SW
Cosmos 1726 Rocket 3.9 13:57:48 10° NNW 14:02:09 73° ENE 14:06:29 10° SSE
Cosmos 1745 Rocket 4.1 13:59:12 10° NNW 14:05:30 64° W 14:11:46 10° S
Cosmos 1378 Rocket 4.3 14:01:47 10° SW 14:05:51 35° WNW 14:09:54 10° N
